Regional Weather Roundup
Issued by NWS

Home | Current Version | Previous Version | Text Only | Print | Product List | Glossary Off
Versions: 1 2 3 4 5 6 7 8 9 10 11 12 13 14 15 16 17 18 19 20 21 22 23 24 25 26 27 28 29 30 31 32 33 34 35 36 37 38 39 40 41 42 43 44 45 46 47 48 49 50

000
ASUS44 KMEG 040000
RWRTN
TENNESSEE HOURLY STATE WEATHER ROUNDUP
NATIONAL WEATHER SERVICE MEMPHIS TN
700 PM CDT TUE MAY 03 2016

TNZ002-004-019-021-049-052-054-088>092-040100-
WEST TENNESSEE

CITY           SKY/WX    TMP DP  RH WIND       PRES   REMARKS
MEMPHIS INTL   PTCLDY    64  47  53 N9        29.97S
NWS MEMPHIS      N/A     64 N/A N/A MISG        N/A
JACKSON        MOCLDY    62  49  62 NW6       29.95S
DYERSBURG      MOCLDY    63  46  55 NW5       29.95S
UNION CITY     MOCLDY    61  48  63 NW6       29.94S
LEXINGTON      PTCLDY    61  50  67 CALM      29.93F
$$

TNZ008-025-027-028-033-062-065-066-040100-
NORTH MIDDLE TENNESSEE

CITY           SKY/WX    TMP DP  RH WIND       PRES   REMARKS
NASHVILLE      MOCLDY    62  43  49 N10       29.93S
CLARKSVILLE    CLOUDY    60  46  59 W7        29.93S
COOKEVILLE     CLOUDY    61  50  67 N3        29.90S
CROSSVILLE     CLOUDY    60  46  59 NW8       29.91S
$$

TNZ061-075-076-078-094-096-097-040100-
SOUTH MIDDLE TENNESSEE

CITY           SKY/WX    TMP DP  RH WIND       PRES   REMARKS
TULLAHOMA      MOCLDY    61  48  63 N7        29.92S
WINCHESTER     CLOUDY    63  48  59 N8        29.90S
MCMINNVILLE    CLOUDY    61  48  63 N7        29.91S
COLUMBIA       CLOUDY    61  52  72 NW3       29.92R
SHELBYVILLE    CLOUDY    63  50  63 N10       29.92S
$$

TNZ017-018-042-046-047-040100-
NORTHEAST TENNESSEE

CITY           SKY/WX    TMP DP  RH WIND       PRES   REMARKS
TRI CITIES     MOCLDY    64  45  49 NW9       29.84R
$$

TNZ012-013-036-069-073-074-040100-
CENTRAL EAST TENNESSEE

CITY           SKY/WX    TMP DP  RH WIND       PRES   REMARKS
KNOXVILLE      MOCLDY    65  48  54 W10       29.85S
OAK RIDGE      PTCLDY    66  44  45 VRB5      29.88S
GATLINBURG     CLOUDY    64  48  55 NW6       29.85S
$$

TNZ083-085-099-040100-
SOUTHEAST TENNESSEE

CITY           SKY/WX    TMP DP  RH WIND       PRES   REMARKS
CHATTANOOGA    MOCLDY    67  49  52 NW12      29.86S
$$

SKY/WX REPORTED AS FAIR MEANS FEW OR NO CLOUDS BELOW
12 THOUSAND FEET.





USA.gov is the U.S. government's official web portal to all federal, state and local government web resources and services.